Regional Weather Roundup
Issued by NWS State College, PA

Home | Current Version | Previous Version | Text Only | Print | Product List | Glossary On
Versions: 1 2 3 4 5 6 7 8 9 10 11 12 13 14 15 16 17 18 19 20 21 22 23 24 25 26 27 28 29 30 31 32 33 34 35 36 37 38 39 40 41 42 43 44 45 46 47 48 49 50
000
ASUS41 KCTP 292210
RWRCTP

REGIONAL WEATHER ROUNDUP
NATIONAL WEATHER SERVICE STATE COLLEGE PA
600 PM EDT FRI MAY 29 2015

Note: "fair" indicates few or no clouds below 12,000 feet with no
significant weather and/or obstructions to visibility.

* = STATION THAT DOES NOT REPORT PRECIPITATION /E.G. RAIN...SNOW...ETC/
    THUNDER OR FOG.

PAZ002>004-007>009-013>016-020>023-029>032-292300-
WESTERN PENNSYLVANIA

CITY           SKY/WX    TMP DP  RH WIND       PRES   REMARKS
ERIE           PTSUNNY   81  61  50 SW13      30.07F
MEADVILLE      CLOUDY    70  63  78 CALM      30.11F
FRANKLIN*      CLOUDY    77  64  65 SW5       30.14F
NEW CASTLE     MOCLDY    87  66  49 CALM      30.10F
BEAVER COUNTY  SUNNY     84  63  48 SW13G18   30.12F
BUTLER*        MOSUNNY   75  64  69 SE7       30.15F
PITTSBURGH INT PTSUNNY   82  64  54 S14       30.12F
PITTSBURGH     PTSUNNY   72  63  73 SE6       30.14R
INDIANA*       MOSUNNY   81  64  57 S7        30.18F
LATROBE        LGT RAIN  72  72 100 S9        30.17S
WASHINGTON CO* PTSUNNY   75  68  78 S8        30.16F
$$

PAZ004>006-010>012-017>019-024>028-033>037-041-042-045-046-049>053-292300-
CENTRAL PENNSYLVANIA

CITY           SKY/WX    TMP DP  RH WIND       PRES   REMARKS
BRADFORD       PTSUNNY   78  58  49 S6        30.18F
DUBOIS         MOSUNNY   82  60  47 SE8       30.16F
CLEARFIELD     CLOUDY    81  61  50 VRB5      30.17F
JOHNSTOWN      MOSUNNY   75  60  59 S15       30.21F
ALTOONA        MOSUNNY   80  62  54 S14       30.19F
STATE COLLEGE  MOSUNNY   81  61  50 S7        30.17F
WILLIAMSPORT   MOSUNNY   84  60  44 SW6       30.15F
SELINSGROVE    MOSUNNY   85  61  44 S8        30.17F
FT INDIANTOWN  MOSUNNY   83  64  52 S6        30.17F
CAPITAL CITY   MOSUNNY   84  64  50 SE9       30.17F
HARRISBURG     PTSUNNY   84  67  56 SE7       30.16F
YORK           MOSUNNY   82  67  60 SE9       30.18F
$$

PAZ038>040-043-044-047-048-054-055-060>062-067>071-292300-
EASTERN PENNSYLVANIA

CITY           SKY/WX    TMP DP  RH WIND       PRES   REMARKS
SCRANTON       MOSUNNY   84  54  35 S8        30.19F
MOUNT POCONO   PTSUNNY   78  51  38 W6        30.28F
ALLENTOWN      PTSUNNY   86  57  37 S8        30.18F
QUAKERTOWN*    MOCLDY    86  59  39 S5        30.20F
READING        MOSUNNY   85  61  44 SE10      30.17F
LANCASTER      MOSUNNY   84  63  49 SE10      30.18F
COATESVILLE    MOCLDY    81  66  61 CALM      30.22S
POTTSTOWN      MOSUNNY   84  62  47 S7        30.20F
BLUE BELL      MOSUNNY   84  63  48 S5        30.18F
DOYLESTOWN     MOSUNNY   83  57  41 S5        30.19F
WILLOW GROVE   NOT AVBL
NORTH PHILA    MOSUNNY   87  60  40 VRB7      30.20F
PHILADELPHIA   PTSUNNY   86  65  49 SW7       30.19S
$$



USA.gov is the U.S. government's official web portal to all federal, state and local government web resources and services.